[[{"header":{"parameterUnit":"m.s-1","parameterCategory":2,"la1":30.2991,"la2":30.254,"lo1":-89.0895,"lo2":-89.0444,"dy":0.0017,"dx":0.0017,"nx":28,"ny":28,"refTime":"2024-02-21T03:00:00:Z","depth":"0","parameterNumber":2,"parameterNumberName":"U-component_of_CURRENTS"},"data":[0,0,0,0,0,0,0,0,0,0,0,0,0,0,0,0,0,0,0,0,0,0,0,0,0,0,0,0,0,0,0,0,0,0,0,0,0,0,0,0,0,0,0,0,0,0,0,0,0,0,0,0,0,0,0,0,0,0,-0.2339,-0.234,0,-0.2354,-0.2354,-0.2354,-0.2345,-0.2345,-0.2345,-0.2345,-0.2313,-0.2313,-0.2312,0,0,0,0,0,0,0,0,0,0,0,0,0,-0.2278,-0.2279,-0.2339,-0.234,-0.234,-0.2354,-0.2354,-0.2354,-0.2345,-0.2345,-0.2345,-0.2345,-0.2314,-0.2313,-0.2312,0,0,0,0,0,0,0,0,0,0,0,0,0,-0.2297,-0.228,-0.2339,-0.234,-0.234,-0.2354,-0.2354,-0.2354,-0.2345,-0.2345,-0.2345,-0.2345,-0.2314,-0.2313,-0.2312,-0.231,0,0,-0.2309,-0.2308,0,0,0,0,0,0,0,0,-0.2296,-0.2299,-0.2339,-0.234,-0.234,-0.235,-0.2321,-0.2338,-0.2345,-0.234,-0.2345,-0.2345,-0.2323,-0.2322,-0.2321,-0.2309,-0.2307,-0.2309,-0.2308,-0.2307,-0.2307,0,0,0,0,0,0,0,-0.2295,-0.2299,-0.2342,-0.234,-0.234,-0.2331,-0.2333,-0.2324,-0.233,-0.2341,-0.2341,-0.2347,-0.2323,-0.2323,-0.2321,-0.2307,-0.2309,-0.2308,-0.2307,-0.2307,-0.2278,-0.2278,0,0,0,0,0,0,-0.2301,-0.2298,-0.2342,-0.2343,-0.2321,-0.2333,-0.2335,-0.2345,-0.2331,-0.233,-0.2348,-0.2347,-0.2324,-0.2322,-0.2319,-0.2318,-0.2307,-0.2306,-0.2306,-0.2279,-0.2278,-0.2278,0,0,0,0,0,0,-0.23,-0.2305,-0.2341,-0.2323,-0.2327,-0.2334,-0.2345,-0.2345,-0.2346,-0.2337,-0.2334,-0.2348,-0.2324,-0.2321,-0.2311,-0.2316,-0.2306,-0.2305,-0.2279,-0.2278,-0.2278,-0.2313,0,0,0,0,0,0,-0.2298,-0.2304,-0.2308,-0.2323,-0.2328,-0.2351,-0.2346,-0.2346,-0.2352,-0.2351,-0.2337,-0.2334,-0.2324,-0.2313,-0.231,-0.2314,-0.2304,-0.2279,-0.2279,-0.2278,-0.2312,-0.2314,-0.2316,0,0,0,0,0,-0.2296,-0.2301,-0.2308,-0.2313,-0.2335,-0.2352,-0.2353,-0.2355,-0.2352,-0.2354,-0.2343,-0.2334,-0.2309,-0.2312,-0.2309,-0.2313,-0.2279,-0.2279,-0.2278,-0.2311,-0.2314,-0.2316,0,0,0,0,0,0,-0.2271,-0.2302,-0.2309,-0.2323,-0.2338,-0.2351,-0.2352,-0.2357,-0.2351,-0.2346,-0.2335,-0.2331,-0.2324,-0.2312,-0.2315,-0.2302,-0.2292,-0.2291,-0.2318,-0.232,-0.2322,-0.2315,-0.2303,0,0,0,0,0,-0.2271,-0.2283,-0.2311,-0.2319,-0.2329,-0.2341,-0.2346,-0.2352,-0.2353,-0.235,-0.2342,-0.2329,-0.2321,-0.2315,-0.2303,-0.2299,-0.228,-0.2297,-0.2299,-0.2301,-0.2292,-0.2277,-0.2277,-0.2277,-0.2277,-0.2277,0,0,-0.2261,-0.2281,-0.2285,-0.2314,-0.2324,-0.234,-0.2343,-0.2353,-0.2362,-0.2347,-0.2345,-0.2336,-0.232,-0.2315,-0.2311,-0.2306,-0.229,-0.23,-0.2302,-0.2293,-0.2276,-0.2276,-0.2276,-0.2277,-0.2277,-0.2277,0,0,-0.2252,-0.2269,-0.228,-0.2298,-0.2323,-0.2334,-0.234,-0.2357,-0.2359,-0.2362,-0.2352,-0.2344,-0.2333,-0.2323,-0.2317,-0.232,-0.23,-0.2317,-0.2323,-0.2309,-0.2309,-0.2309,-0.2284,-0.2281,-0.2319,-0.2319,-0.2319,0,-0.224,-0.226,-0.2283,-0.2302,-0.2315,-0.2333,-0.2347,-0.2356,-0.2365,-0.2366,-0.2363,-0.2345,-0.2335,-0.2327,-0.2329,-0.2325,-0.2309,-0.2321,-0.2312,-0.2312,-0.2311,-0.2285,-0.2282,-0.2321,-0.2321,-0.232,-0.232,0,-0.2243,-0.2262,-0.2269,-0.2302,-0.2318,-0.2331,-0.2356,-0.2365,-0.237,-0.2377,-0.2372,-0.2359,-0.2346,-0.2346,-0.2339,-0.2329,-0.2318,-0.2318,-0.231,-0.2313,-0.2286,-0.2282,-0.2323,-0.2323,-0.2322,-0.2322,0,0,-0.2206,-0.2262,-0.2262,-0.2279,-0.2319,-0.2331,-0.2352,-0.2372,-0.238,-0.2383,-0.2386,-0.2373,-0.2365,-0.2356,-0.2347,-0.2335,-0.2319,-0.2325,-0.2324,-0.2305,-0.2279,-0.2198,-0.2186,-0.2323,-0.2322,-0.2322,-0.2263,0,-0.2198,-0.2231,-0.2262,-0.2285,-0.2304,-0.2335,-0.2353,-0.2373,-0.2386,-0.2394,-0.2385,-0.2381,-0.237,-0.2364,-0.2352,-0.2332,-0.2309,-0.2334,-0.2273,-0.2271,-0.2204,-0.2179,-0.209,-0.2024,-0.2258,-0.2258,-0.2257,0,-0.2183,-0.2212,-0.2237,-0.2284,-0.2294,-0.2309,-0.2338,-0.2358,-0.2381,-0.2392,-0.2391,-0.2388,-0.2374,-0.2364,-0.232,-0.2338,-0.2303,-0.2283,-0.2281,-0.2187,-0.2182,-0.2057,-0.2007,-0.1988,-0.225,-0.2251,-0.2251,0,-0.2135,-0.2186,-0.2204,-0.222,-0.2279,-0.229,-0.2314,-0.2347,-0.236,-0.2385,-0.2391,-0.2384,-0.2371,-0.234,-0.2297,-0.2311,-0.2241,-0.2258,-0.2146,-0.214,-0.204,-0.2026,-0.1965,-0.2208,-0.2208,-0.2208,-0.2209,0,-0.2111,-0.2122,-0.2181,-0.2193,-0.2204,-0.226,-0.2271,-0.23,-0.2336,-0.2342,-0.2376,-0.2365,-0.2364,-0.2329,-0.2293,-0.2194,-0.2233,-0.2129,-0.2113,-0.2049,-0.2036,-0.1996,-0.2032,-0.2206,-0.2207,-0.2207,-0.2207,0,-0.2047,-0.2094,-0.2111,-0.2169,-0.2182,-0.2185,-0.2236,-0.2246,-0.2295,-0.2303,-0.231,-0.2342,-0.2295,-0.2271,-0.2217,-0.2171,-0.206,-0.2053,-0.197,-0.1945,-0.1821,-0.1862,-0.179,-0.1737,-0.1924,-0.1921,-0.1919,0,-0.2015,-0.2018,-0.2067,-0.2074,-0.2096,-0.2119,-0.2133,-0.2201,-0.2219,-0.2272,-0.2265,-0.225,-0.2208,-0.2106,-0.2027,-0.1933,-0.1947,-0.1799,-0.1802,-0.1779,-0.1816,-0.1858,-0.1823,-0.169,-0.1686,-0.1683,-0.168,0,-0.1937,-0.1951,-0.1968,-0.1991,-0.2005,-0.2025,-0.2057,-0.2067,-0.2143,-0.2149,-0.2146,-0.2123,-0.2043,-0.1913,-0.1806,-0.1741,-0.1761,-0.1731,-0.1731,-0.1634,-0.1652,-0.1605,-0.1771,-0.1653,-0.1656,-0.1658,-0.1659,-0.166,-0.1854,-0.1845,-0.1872,-0.1887,-0.191,-0.1923,-0.1882,-0.1943,-0.1944,-0.193,-0.1978,-0.1904,-0.1828,-0.1661,-0.1594,-0.1461,-0.1542,-0.1416,-0.1471,-0.1516,-0.1453,-0.1545,-0.1397,-0.1398,-0.1399,-0.14,-0.1401,0,-0.1745,-0.1759,-0.177,-0.1796,-0.1787,-0.182,-0.1817,-0.1738,-0.1695,-0.1733,-0.1694,-0.1615,-0.1492,-0.1439,-0.1321,-0.124,-0.1224,-0.1209,-0.1261,-0.1238,-0.1321,-0.1296,-0.109,-0.109,-0.109,-0.109,-0.109,-0.109,-0.1686,-0.1665,-0.1688,-0.1662,-0.1665,-0.1538,-0.1484,-0.1401,-0.1362,-0.128,-0.1272,-0.1261,-0.1285,-0.136,-0.1247,-0.1169,-0.1156,-0.111,-0.1146,-0.1231,-0.1255,-0.1279,-0.126,-0.105,-0.105,-0.1001,-0.1001,-0.1001]},{"header":{"parameterUnit":"m.s-1","parameterCategory":2,"la1":30.2991,"la2":30.254,"lo1":-89.0895,"lo2":-89.0444,"dy":0.0017,"dx":0.0017,"nx":28,"ny":28,"refTime":"2024-02-21T03:00:00:Z","depth":"0","parameterNumber":3,"parameterNumberName":"V-component_of_CURRENTS"},"data":[0,0,0,0,0,0,0,0,0,0,0,0,0,0,0,0,0,0,0,0,0,0,0,0,0,0,0,0,0,0,0,0,0,0,0,0,0,0,0,0,0,0,0,0,0,0,0,0,0,0,0,0,0,0,0,0,0,0,-0.0164,-0.0164,0,-0.0108,-0.0107,-0.0106,-0.0065,-0.0065,-0.0065,-0.0064,0.0015,0.0017,0.0019,0,0,0,0,0,0,0,0,0,0,0,0,0,-0.0212,-0.0211,-0.0165,-0.0164,-0.0163,-0.0108,-0.0107,-0.0106,-0.0065,-0.0065,-0.0065,-0.0064,0.0015,0.0017,0.0019,0,0,0,0,0,0,0,0,0,0,0,0,0,-0.0177,-0.0211,-0.0165,-0.0136,-0.0133,-0.0108,-0.0107,-0.0106,-0.0065,-0.0065,-0.0064,-0.0064,0.0014,0.0017,0.0019,0.0025,0,0,0.0027,0.0029,0,0,0,0,0,0,0,0,-0.0179,-0.0175,-0.0141,-0.0138,-0.0134,-0.0093,-0.0094,-0.0061,-0.0066,-0.0091,-0.0064,-0.0064,-0.0019,-0.0014,-0.0005,0.0029,0.0032,0.0028,0.0029,0.003,0.0031,0,0,0,0,0,0,0,-0.0182,-0.0177,-0.0142,-0.014,-0.0136,-0.0117,-0.0111,-0.0088,-0.0059,-0.0089,-0.0086,-0.0079,-0.0017,-0.0007,-0.0003,0.0033,0.0028,0.003,0.0032,0.0033,0.0096,0.0096,0,0,0,0,0,0,-0.019,-0.018,-0.0144,-0.014,-0.0155,-0.0116,-0.0111,-0.0107,-0.0059,-0.0052,-0.008,-0.0078,-0.0012,-0.0006,0.0,0.0013,0.003,0.0033,0.0034,0.0095,0.0096,0.0096,0,0,0,0,0,0,-0.0191,-0.0188,-0.0146,-0.0158,-0.0152,-0.0116,-0.0112,-0.0106,-0.0095,-0.0052,-0.0044,-0.0075,-0.0012,-0.0003,0.0019,0.0016,0.0034,0.0036,0.0095,0.0095,0.0096,0.0036,0,0,0,0,0,0,-0.0193,-0.0188,-0.0191,-0.0159,-0.0151,-0.0138,-0.0113,-0.0105,-0.0092,-0.0088,-0.0046,-0.0038,-0.0011,0.0015,0.0022,0.002,0.0039,0.0095,0.0095,0.0096,0.0038,0.0034,0.003,0,0,0,0,0,-0.0195,-0.0203,-0.0192,-0.0187,-0.0156,-0.0138,-0.0133,-0.0106,-0.0092,-0.0093,-0.0062,-0.0039,0.0021,0.0017,0.0025,0.0024,0.0095,0.0095,0.0096,0.0039,0.0034,0.003,0,0,0,0,0,0,-0.0226,-0.0198,-0.0186,-0.0185,-0.0166,-0.0131,-0.013,-0.011,-0.0087,-0.0083,-0.0042,-0.0032,-0.0014,0.0015,0.0009,0.0044,0.0064,0.0065,0.0018,0.0014,0.0011,-0.0002,0.0041,0,0,0,0,0,-0.0235,-0.0233,-0.0203,-0.0203,-0.0196,-0.0164,-0.0154,-0.0135,-0.0109,-0.0098,-0.0068,-0.0034,-0.0007,0.001,0.0036,0.0053,0.0094,0.006,0.0057,0.0053,0.005,0.0104,0.0105,0.0096,0.0096,0.0096,0,0,-0.0247,-0.0232,-0.023,-0.021,-0.0193,-0.0192,-0.0157,-0.0146,-0.0144,-0.0094,-0.0083,-0.0049,-0.0006,0.0012,0.0024,0.0036,0.008,0.0054,0.005,0.0049,0.0104,0.0105,0.0106,0.0096,0.0096,0.0096,0,0,-0.0277,-0.0258,-0.0269,-0.0258,-0.0237,-0.0215,-0.0214,-0.0183,-0.0167,-0.0152,-0.0114,-0.0082,-0.0044,-0.001,0.0011,0.0006,0.0055,0.0015,-0.0011,0.0042,0.0043,0.0044,0.0104,0.0111,0.0017,0.0016,0.0016,0,-0.0295,-0.0304,-0.0271,-0.028,-0.0276,-0.023,-0.0243,-0.0221,-0.0186,-0.0172,-0.0157,-0.009,-0.0054,-0.0021,-0.0023,-0.0003,0.0036,-0.0001,0.0036,0.0039,0.0041,0.0102,0.011,0.0014,0.0014,0.0014,0.0014,0,-0.0335,-0.0342,-0.0348,-0.0344,-0.0333,-0.0337,-0.0302,-0.0288,-0.026,-0.0231,-0.0195,-0.0142,-0.0098,-0.0081,-0.0055,-0.002,0.0006,0.0021,0.0043,0.0038,0.0103,0.0113,0.0009,0.001,0.0011,0.0012,0,0,-0.0373,-0.0377,-0.0379,-0.0392,-0.0368,-0.0365,-0.0357,-0.0333,-0.0322,-0.0279,-0.0257,-0.0204,-0.0163,-0.0135,-0.009,-0.0044,0.0011,-0.001,-0.0006,0.0042,0.0134,0.0186,0.0202,0.003,0.0031,0.0032,0.0174,0,-0.0417,-0.0456,-0.0438,-0.0468,-0.0485,-0.0442,-0.0436,-0.0405,-0.0364,-0.033,-0.026,-0.0224,-0.0186,-0.0161,-0.011,-0.0017,0.0033,-0.0028,0.0138,0.0143,0.0184,0.0214,0.0238,0.0369,0.0184,0.0186,0.0187,0,-0.0464,-0.0483,-0.0526,-0.0534,-0.0535,-0.0538,-0.0514,-0.0503,-0.0436,-0.0402,-0.0345,-0.0284,-0.0205,-0.0176,-0.0021,-0.0062,0.0026,0.0098,0.0105,0.018,0.0214,0.0345,0.0395,0.052,0.0203,0.0202,0.0201,0,-0.0517,-0.0543,-0.0581,-0.0586,-0.0583,-0.0586,-0.0576,-0.0526,-0.051,-0.0442,-0.0412,-0.0313,-0.0248,-0.0137,0.0019,0.0,0.0197,0.0194,0.0325,0.033,0.0397,0.0406,0.0583,0.0297,0.0297,0.0297,0.0296,0,-0.0574,-0.0603,-0.061,-0.0633,-0.0665,-0.0639,-0.0649,-0.0621,-0.0567,-0.0535,-0.0453,-0.0391,-0.0236,-0.0102,0.002,0.0219,0.0206,0.0332,0.0373,0.0378,0.0384,0.0533,0.0579,0.0302,0.0301,0.03,0.0299,0,-0.0628,-0.0636,-0.068,-0.0691,-0.0696,-0.0717,-0.0704,-0.0701,-0.0645,-0.0597,-0.0575,-0.0431,-0.0249,-0.0082,0.013,0.0236,0.0499,0.0474,0.0475,0.0513,0.0733,0.0773,0.0992,0.1081,0.0638,0.064,0.0642,0,-0.0662,-0.0691,-0.0728,-0.0754,-0.0762,-0.0783,-0.079,-0.0748,-0.0729,-0.0608,-0.058,-0.0401,-0.0246,0.0083,0.0299,0.0537,0.0618,0.0685,0.0649,0.0766,0.0841,0.0861,0.092,0.0722,0.0725,0.0726,0.0728,0,-0.0718,-0.0727,-0.0762,-0.0814,-0.0839,-0.0857,-0.0855,-0.0844,-0.0769,-0.0698,-0.0544,-0.0409,-0.0092,0.0208,0.0501,0.0628,0.0786,0.0732,0.0858,0.0932,0.0962,0.1059,0.061,0.0745,0.0743,0.0742,0.0741,0.074,-0.0746,-0.0785,-0.0823,-0.0862,-0.0888,-0.0888,-0.0834,-0.0803,-0.0731,-0.0524,-0.0495,-0.0208,0.0122,0.055,0.071,0.1008,0.0962,0.1072,0.1116,0.113,0.1203,0.0795,0.0967,0.0967,0.0966,0.0966,0.0966,0,-0.0776,-0.0809,-0.0861,-0.087,-0.0848,-0.087,-0.0826,-0.0705,-0.054,-0.0399,-0.0211,0.016,0.0516,0.0835,0.1207,0.1374,0.1407,0.1442,0.1472,0.1519,0.1171,0.1161,0.1377,0.1377,0.1377,0.1377,0.1376,0.1376,-0.0793,-0.0845,-0.0865,-0.0812,-0.0784,-0.0671,-0.0602,-0.043,-0.0276,0.0036,0.0297,0.0466,0.0791,0.132,0.1672,0.1703,0.1857,0.1835,0.1929,0.1672,0.164,0.1609,0.1613,0.1919,0.192,0.2257,0.226,0.2262]}],[{"header":{"parameterUnit":"m.s-1","parameterCategory":2,"la1":30.2991,"la2":30.254,"lo1":-89.0895,"lo2":-89.0444,"dy":0.0017,"dx":0.0017,"nx":28,"ny":28,"refTime":"2024-02-21T03:00:00:Z","depth":"2","parameterNumber":2,"parameterNumberName":"U-component_of_CURRENTS"},"data":[0,0,0,0,0,0,0,0,0,0,0,0,0,0,0,0,0,0,0,0,0,0,0,0,0,0,0,0,0,0,0,0,0,0,0,0,0,0,0,0,0,0,0,0,0,0,0,0,0,0,0,0,0,0,0,0,0,0,-0.2066,-0.2066,0,-0.209,-0.209,-0.209,-0.2088,-0.2088,-0.2088,-0.2088,-0.2081,-0.2081,-0.2081,0,0,0,0,0,0,0,0,0,0,0,0,0,-0.2009,-0.201,-0.2066,-0.2066,-0.2067,-0.209,-0.209,-0.209,-0.2088,-0.2088,-0.2088,-0.2088,-0.2081,-0.2081,-0.2081,0,0,0,0,0,0,0,0,0,0,0,0,0,-0.2031,-0.201,-0.2066,-0.2071,-0.2071,-0.209,-0.209,-0.209,-0.2088,-0.2088,-0.2088,-0.2087,-0.2081,-0.2081,-0.2081,-0.2084,0,0,-0.2081,-0.2081,0,0,0,0,0,0,0,0,-0.203,-0.2033,-0.2069,-0.207,-0.2071,-0.2088,-0.2067,-0.2087,-0.2088,-0.2079,-0.2088,-0.2087,-0.2082,-0.2082,-0.2084,-0.2084,-0.2084,-0.2081,-0.2081,-0.2081,-0.2081,0,0,0,0,0,0,0,-0.2028,-0.2032,-0.2073,-0.207,-0.2071,-0.2068,-0.2071,-0.2071,-0.2079,-0.208,-0.208,-0.2087,-0.2082,-0.2084,-0.2084,-0.2084,-0.2081,-0.2081,-0.2081,-0.2081,-0.2081,-0.2082,0,0,0,0,0,0,-0.2031,-0.203,-0.2072,-0.2074,-0.2052,-0.207,-0.2073,-0.2081,-0.208,-0.208,-0.2087,-0.2087,-0.2084,-0.2084,-0.2083,-0.2096,-0.2081,-0.208,-0.208,-0.2081,-0.2082,-0.2082,0,0,0,0,0,0,-0.203,-0.2035,-0.2071,-0.2054,-0.2059,-0.2071,-0.208,-0.2081,-0.2087,-0.2086,-0.2085,-0.2092,-0.2084,-0.2084,-0.2087,-0.2095,-0.208,-0.208,-0.2081,-0.2081,-0.2082,-0.2115,0,0,0,0,0,0,-0.2028,-0.2034,-0.2038,-0.2055,-0.206,-0.2085,-0.2081,-0.2082,-0.2092,-0.2092,-0.209,-0.2089,-0.2084,-0.2087,-0.2087,-0.2095,-0.208,-0.2081,-0.2081,-0.2082,-0.2114,-0.2117,-0.2119,0,0,0,0,0,-0.2026,-0.2032,-0.2038,-0.2044,-0.2067,-0.2086,-0.2088,-0.2094,-0.2093,-0.2098,-0.2095,-0.2089,-0.2087,-0.2087,-0.2087,-0.2095,-0.2081,-0.2081,-0.2081,-0.2113,-0.2116,-0.2119,0,0,0,0,0,0,-0.2005,-0.2033,-0.204,-0.2054,-0.2072,-0.2087,-0.2091,-0.2098,-0.21,-0.2099,-0.2094,-0.2093,-0.2098,-0.209,-0.209,-0.2094,-0.2082,-0.2082,-0.2106,-0.2109,-0.2111,-0.2105,-0.208,0,0,0,0,0,-0.2006,-0.2017,-0.2044,-0.2053,-0.2063,-0.2079,-0.2086,-0.2094,-0.2101,-0.2103,-0.2102,-0.2098,-0.2098,-0.2099,-0.2095,-0.2101,-0.2083,-0.2104,-0.2106,-0.2108,-0.2102,-0.2089,-0.209,-0.2082,-0.2082,-0.2082,0,0,-0.1998,-0.2016,-0.2021,-0.2049,-0.2062,-0.2082,-0.2082,-0.2098,-0.2111,-0.2101,-0.2112,-0.2108,-0.2101,-0.2106,-0.2107,-0.2102,-0.21,-0.2108,-0.211,-0.2103,-0.2089,-0.209,-0.2091,-0.2082,-0.2082,-0.2082,0,0,-0.1993,-0.2008,-0.202,-0.204,-0.2067,-0.2081,-0.2088,-0.2109,-0.2115,-0.2129,-0.2122,-0.2122,-0.2125,-0.2121,-0.2119,-0.213,-0.2112,-0.2131,-0.2141,-0.2129,-0.2129,-0.2129,-0.2106,-0.2104,-0.2133,-0.2133,-0.2133,0,-0.1985,-0.2006,-0.2025,-0.2047,-0.2063,-0.2083,-0.2101,-0.2114,-0.2132,-0.2137,-0.2135,-0.2135,-0.2131,-0.2134,-0.2138,-0.2136,-0.2122,-0.2134,-0.2132,-0.2132,-0.2132,-0.2108,-0.2105,-0.2135,-0.2134,-0.2134,-0.2134,0,-0.1993,-0.2013,-0.2022,-0.2058,-0.2077,-0.2095,-0.2123,-0.2137,-0.2147,-0.2158,-0.2164,-0.2158,-0.2155,-0.2157,-0.2152,-0.215,-0.2138,-0.2137,-0.2127,-0.2135,-0.2109,-0.2105,-0.2137,-0.2136,-0.2136,-0.2135,0,0,-0.196,-0.2017,-0.202,-0.204,-0.2085,-0.21,-0.2128,-0.2155,-0.2169,-0.2179,-0.219,-0.2188,-0.2182,-0.2177,-0.2171,-0.2161,-0.2149,-0.215,-0.2149,-0.213,-0.2114,-0.2037,-0.2026,-0.2151,-0.2151,-0.2151,-0.2096,0,-0.1959,-0.1998,-0.2028,-0.2061,-0.2084,-0.2117,-0.2142,-0.2168,-0.2185,-0.2201,-0.2197,-0.2202,-0.2191,-0.219,-0.218,-0.2161,-0.2141,-0.2163,-0.2106,-0.2104,-0.2038,-0.202,-0.1885,-0.1819,-0.2093,-0.2092,-0.2092,0,-0.1951,-0.1983,-0.2017,-0.2068,-0.2081,-0.2103,-0.2141,-0.2166,-0.2197,-0.221,-0.2216,-0.2217,-0.2209,-0.2197,-0.2159,-0.2175,-0.2141,-0.2121,-0.2119,-0.2031,-0.202,-0.1855,-0.1802,-0.2086,-0.2086,-0.2087,-0.2087,0,-0.191,-0.1967,-0.1992,-0.2012,-0.2077,-0.2093,-0.2121,-0.2161,-0.2178,-0.221,-0.2219,-0.222,-0.221,-0.2183,-0.214,-0.2152,-0.2089,-0.2102,-0.1996,-0.199,-0.1853,-0.1835,-0.2059,-0.2059,-0.2059,-0.2059,-0.206,0,-0.1894,-0.1911,-0.1975,-0.1991,-0.2012,-0.2068,-0.209,-0.2122,-0.2164,-0.2173,-0.2211,-0.2203,-0.2205,-0.2174,-0.214,-0.2047,-0.2084,-0.1983,-0.1966,-0.186,-0.1844,-0.2061,-0.2062,-0.2057,-0.2058,-0.2058,-0.2059,0,-0.1838,-0.1887,-0.1912,-0.1977,-0.1993,-0.2003,-0.206,-0.2076,-0.2129,-0.214,-0.2149,-0.2182,-0.2139,-0.2121,-0.207,-0.2026,-0.1962,-0.1916,-0.1784,-0.1753,-0.1874,-0.1877,-0.1798,-0.1795,-0.1792,-0.179,-0.1788,0,-0.1811,-0.182,-0.1876,-0.1889,-0.1915,-0.1946,-0.1965,-0.2036,-0.2055,-0.2109,-0.2102,-0.2091,-0.2048,-0.1956,-0.1882,-0.1795,-0.1863,-0.1623,-0.1617,-0.1852,-0.1845,-0.1853,-0.1859,-0.145,-0.1445,-0.1442,-0.1439,0,-0.1743,-0.1762,-0.1783,-0.181,-0.1831,-0.185,-0.1887,-0.1902,-0.1977,-0.1988,-0.1982,-0.1956,-0.188,-0.1728,-0.1632,-0.1569,-0.1633,-0.1543,-0.181,-0.154,-0.1519,-0.1514,-0.1533,-0.1406,-0.1409,-0.1411,-0.1413,-0.1414,-0.167,-0.1666,-0.1694,-0.1703,-0.173,-0.1733,-0.1697,-0.1754,-0.1755,-0.1735,-0.1804,-0.1703,-0.1677,-0.1446,-0.1356,-0.1286,-0.14,-0.1339,-0.1352,-0.1369,-0.1342,-0.1317,-0.116,-0.1162,-0.1163,-0.1165,-0.1166,0,-0.1571,-0.1577,-0.1586,-0.1586,-0.1552,-0.1607,-0.1616,-0.156,-0.151,-0.153,-0.1491,-0.1319,-0.1209,-0.1181,-0.1022,-0.099,-0.0998,-0.0945,-0.0964,-0.0996,-0.1026,-0.0983,-0.0705,-0.0703,-0.0702,-0.0701,0,0,-0.1519,-0.1486,-0.1488,-0.1392,-0.1385,-0.1288,-0.1254,-0.1214,-0.1195,-0.112,-0.1064,-0.1124,-0.1142,-0.0925,-0.0874,-0.0762,-0.0871,-0.0719,-0.1088,-0.1142,-0.1169,-0.1249,-0.1219,0,0,0,0,0]},{"header":{"parameterUnit":"m.s-1","parameterCategory":2,"la1":30.2991,"la2":30.254,"lo1":-89.0895,"lo2":-89.0444,"dy":0.0017,"dx":0.0017,"nx":28,"ny":28,"refTime":"2024-02-21T03:00:00:Z","depth":"2","parameterNumber":3,"parameterNumberName":"V-component_of_CURRENTS"},"data":[0,0,0,0,0,0,0,0,0,0,0,0,0,0,0,0,0,0,0,0,0,0,0,0,0,0,0,0,0,0,0,0,0,0,0,0,0,0,0,0,0,0,0,0,0,0,0,0,0,0,0,0,0,0,0,0,0,0,-0.0286,-0.0285,0,-0.0233,-0.0232,-0.0232,-0.0193,-0.0193,-0.0193,-0.0192,-0.0113,-0.0112,-0.011,0,0,0,0,0,0,0,0,0,0,0,0,0,-0.0324,-0.0324,-0.0286,-0.0285,-0.0284,-0.0233,-0.0232,-0.0231,-0.0193,-0.0193,-0.0193,-0.0192,-0.0114,-0.0112,-0.011,0,0,0,0,0,0,0,0,0,0,0,0,0,-0.0293,-0.0324,-0.0286,-0.0259,-0.0256,-0.0233,-0.0232,-0.0231,-0.0193,-0.0193,-0.0192,-0.0192,-0.0115,-0.0112,-0.011,-0.0103,0,0,-0.0101,-0.01,0,0,0,0,0,0,0,0,-0.0295,-0.0292,-0.0264,-0.0261,-0.0258,-0.0219,-0.0217,-0.0187,-0.0194,-0.0217,-0.0192,-0.0192,-0.0147,-0.0141,-0.0133,-0.0099,-0.0096,-0.0101,-0.0099,-0.0098,-0.0097,0,0,0,0,0,0,0,-0.0297,-0.0294,-0.0265,-0.0263,-0.0259,-0.024,-0.0235,-0.0211,-0.0185,-0.0215,-0.0212,-0.0206,-0.0145,-0.0136,-0.0131,-0.0094,-0.0101,-0.0099,-0.0097,-0.0096,-0.003,-0.003,0,0,0,0,0,0,-0.0306,-0.0296,-0.0266,-0.0263,-0.0275,-0.0239,-0.0234,-0.0232,-0.0186,-0.0178,-0.0207,-0.0205,-0.0141,-0.0134,-0.0128,-0.0108,-0.0098,-0.0096,-0.0094,-0.0031,-0.003,-0.003,0,0,0,0,0,0,-0.0307,-0.0304,-0.0269,-0.0278,-0.0272,-0.024,-0.0237,-0.0231,-0.022,-0.018,-0.0172,-0.0202,-0.014,-0.0132,-0.0108,-0.0105,-0.0095,-0.0092,-0.0031,-0.003,-0.003,-0.0075,0,0,0,0,0,0,-0.0308,-0.0305,-0.0308,-0.0279,-0.0272,-0.026,-0.0237,-0.023,-0.0217,-0.0214,-0.0173,-0.0165,-0.0139,-0.0112,-0.0105,-0.0101,-0.009,-0.0031,-0.0031,-0.003,-0.0074,-0.0076,-0.0079,0,0,0,0,0,-0.031,-0.0318,-0.0308,-0.0305,-0.0277,-0.026,-0.0255,-0.023,-0.0218,-0.0217,-0.0188,-0.0166,-0.0105,-0.011,-0.0102,-0.0097,-0.0031,-0.0031,-0.003,-0.0072,-0.0076,-0.0078,0,0,0,0,0,0,-0.0337,-0.0314,-0.0303,-0.0303,-0.0285,-0.0254,-0.0251,-0.0233,-0.021,-0.0207,-0.0168,-0.0158,-0.0137,-0.0111,-0.0117,-0.0077,-0.0063,-0.0061,-0.0098,-0.01,-0.0103,-0.0113,-0.0088,0,0,0,0,0,-0.0345,-0.0345,-0.0318,-0.0319,-0.0312,-0.0282,-0.0273,-0.0256,-0.0231,-0.022,-0.0191,-0.0158,-0.013,-0.0111,-0.0087,-0.0065,-0.003,-0.0055,-0.0058,-0.006,-0.0062,-0.0007,-0.0005,-0.0029,-0.0029,-0.0029,0,0,-0.0357,-0.0344,-0.0343,-0.0325,-0.0309,-0.0305,-0.0276,-0.0265,-0.0258,-0.0215,-0.0199,-0.017,-0.0128,-0.0106,-0.0093,-0.0082,-0.0035,-0.006,-0.0062,-0.0063,-0.0007,-0.0004,-0.0002,-0.0029,-0.0029,-0.0029,0,0,-0.0382,-0.0368,-0.0376,-0.0364,-0.0344,-0.0324,-0.0323,-0.0294,-0.0277,-0.0259,-0.0225,-0.0192,-0.0155,-0.0119,-0.0097,-0.0096,-0.0054,-0.0089,-0.0104,-0.0051,-0.0049,-0.0046,-0.0,0.0007,-0.0085,-0.0085,-0.0085,0,-0.0397,-0.0403,-0.0377,-0.0381,-0.0375,-0.0336,-0.0343,-0.0321,-0.0287,-0.0272,-0.0261,-0.0193,-0.0159,-0.0118,-0.0118,-0.0101,-0.0069,-0.0098,-0.0055,-0.0051,-0.0048,-0.0001,0.0007,-0.0087,-0.0087,-0.0086,-0.0086,0,-0.0427,-0.0431,-0.0436,-0.0428,-0.0417,-0.0418,-0.0384,-0.0369,-0.0344,-0.0315,-0.0276,-0.0226,-0.0182,-0.0165,-0.0142,-0.01,-0.0085,-0.007,-0.005,-0.0048,0.0001,0.001,-0.009,-0.0089,-0.0089,-0.0088,0,0,-0.0462,-0.046,-0.0461,-0.0468,-0.0443,-0.0439,-0.0424,-0.0397,-0.0384,-0.0342,-0.0317,-0.0261,-0.0226,-0.0198,-0.0157,-0.011,-0.0058,-0.0085,-0.0081,-0.0044,0.0054,0.0079,0.0092,-0.0037,-0.0035,-0.0034,0.0079,0,-0.0495,-0.0523,-0.0504,-0.0523,-0.0534,-0.0494,-0.0484,-0.0451,-0.0413,-0.0379,-0.031,-0.0275,-0.0239,-0.0218,-0.0164,-0.0085,-0.0035,-0.009,0.0052,0.0056,0.0074,0.0103,0.0074,0.0173,0.0088,0.009,0.0091,0,-0.0532,-0.0545,-0.0575,-0.0575,-0.0574,-0.0574,-0.0547,-0.0533,-0.0467,-0.0435,-0.0377,-0.0323,-0.0244,-0.022,-0.0076,-0.0114,-0.0037,0.0026,0.0032,0.0077,0.0099,0.0159,0.0194,0.0107,0.0106,0.0105,0.0104,0,-0.0579,-0.0594,-0.0622,-0.0623,-0.0613,-0.0613,-0.0602,-0.0552,-0.0536,-0.0469,-0.0444,-0.0344,-0.0289,-0.0182,-0.0049,-0.0061,0.0109,0.0114,0.0211,0.0213,0.0228,0.0229,0.0214,0.0214,0.0214,0.0213,0.0213,0,-0.0626,-0.0646,-0.0649,-0.0665,-0.0691,-0.0662,-0.0668,-0.064,-0.059,-0.0564,-0.0478,-0.0428,-0.0278,-0.0163,-0.0051,0.0116,0.0116,0.0217,0.0249,0.0211,0.021,0.0182,0.0177,0.0218,0.0217,0.0216,0.0215,0,-0.0674,-0.0677,-0.071,-0.0714,-0.0718,-0.0736,-0.0724,-0.0721,-0.0667,-0.0629,-0.0609,-0.0478,-0.0322,-0.0168,0.0022,0.0119,0.0268,0.0323,0.0266,0.0289,0.0336,0.0327,0.0446,0.0448,0.0449,0.0451,0.0452,0,-0.0703,-0.0726,-0.0754,-0.0779,-0.0784,-0.0802,-0.0811,-0.0769,-0.0755,-0.0652,-0.0632,-0.048,-0.0356,-0.0069,0.0126,0.0336,0.0324,0.042,0.0396,0.0343,0.0362,0.0351,0.034,0.04,0.0401,0.0401,0.0402,0,-0.0752,-0.076,-0.0788,-0.0842,-0.0867,-0.0889,-0.0891,-0.0887,-0.082,-0.0763,-0.0647,-0.0539,-0.0262,-0.0024,0.0235,0.0345,0.0383,0.0437,0.0417,0.0339,0.0307,0.0323,0.0313,0.0406,0.0406,0.0405,0.0405,0.0405,-0.0781,-0.0818,-0.0855,-0.0903,-0.0937,-0.0961,-0.0986,-0.0949,-0.091,-0.0805,-0.0669,-0.0484,-0.0252,0.0122,0.0315,0.0475,0.0462,0.0494,0.0489,0.0485,0.0453,0.0425,0.054,0.054,0.054,0.0541,0.0541,0,-0.0819,-0.0859,-0.0912,-0.0976,-0.1033,-0.1025,-0.1032,-0.1029,-0.0981,-0.082,-0.0677,-0.0388,-0.0111,0.0118,0.0387,0.0553,0.0529,0.0564,0.0502,0.0496,0.0491,0.0456,0.0547,0.0547,0.0548,0.0548,0,0,-0.0841,-0.0903,-0.0935,-0.1042,-0.1093,-0.1141,-0.115,-0.11,-0.0997,-0.083,-0.0661,-0.0426,-0.0126,0.0076,0.0285,0.0421,0.0406,0.0423,0.0397,0.0291,0.0284,0.0428,0.0365,0,0,0,0,0]}],[{"header":{"parameterUnit":"m.s-1","parameterCategory":2,"la1":30.2991,"la2":30.254,"lo1":-89.0895,"lo2":-89.0444,"dy":0.0017,"dx":0.0017,"nx":28,"ny":28,"refTime":"2024-02-21T03:00:00:Z","depth":"4","parameterNumber":2,"parameterNumberName":"U-component_of_CURRENTS"},"data":[0,0,0,0,0,0,0,0,0,0,0,0,0,0,0,0,0,0,0,0,0,0,0,0,0,0,0,0,0,0,0,0,0,0,0,0,0,0,0,0,0,0,0,0,0,0,0,0,0,0,0,0,0,0,0,0,0,0,-0.1466,-0.1466,0,-0.1524,-0.1525,-0.1525,-0.1571,-0.1572,-0.1572,-0.1573,-0.1641,-0.1642,-0.1644,0,0,0,0,0,0,0,0,0,0,0,0,0,-0.1391,-0.1392,-0.1466,-0.1466,-0.1467,-0.1524,-0.1525,-0.1525,-0.1571,-0.1572,-0.1572,-0.1573,-0.1641,-0.1642,-0.1644,0,0,0,0,0,0,0,0,0,0,0,0,0,-0.1432,-0.1392,-0.1465,-0.1498,-0.1501,-0.1524,-0.1525,-0.1526,-0.1571,-0.1572,-0.1573,-0.1573,-0.164,-0.1642,-0.1644,-0.1639,0,0,-0.165,-0.1651,0,0,0,0,0,0,0,0,-0.143,-0.1435,-0.1492,-0.1496,-0.15,-0.1542,-0.1523,-0.1564,-0.1571,-0.1543,-0.1573,-0.1574,-0.1609,-0.1614,-0.1621,-0.1642,-0.1645,-0.165,-0.1651,-0.1652,-0.1653,0,0,0,0,0,0,0,-0.1427,-0.1433,-0.1487,-0.1493,-0.1498,-0.1509,-0.1515,-0.1531,-0.157,-0.1546,-0.1549,-0.1558,-0.1611,-0.1619,-0.1623,-0.1646,-0.165,-0.1652,-0.1653,-0.1654,-0.1725,-0.1726,0,0,0,0,0,0,-0.1422,-0.143,-0.1486,-0.1489,-0.1468,-0.1509,-0.1517,-0.1527,-0.157,-0.1577,-0.1557,-0.156,-0.1615,-0.1621,-0.1625,-0.1687,-0.1652,-0.1654,-0.1655,-0.1724,-0.1725,-0.1726,0,0,0,0,0,0,-0.142,-0.1426,-0.1483,-0.1462,-0.147,-0.151,-0.1521,-0.1527,-0.1563,-0.1578,-0.1586,-0.1589,-0.1616,-0.1623,-0.1663,-0.1688,-0.1655,-0.1657,-0.1723,-0.1724,-0.1725,-0.1769,0,0,0,0,0,0,-0.1417,-0.1425,-0.1443,-0.1462,-0.1471,-0.1514,-0.152,-0.1528,-0.1566,-0.1571,-0.1608,-0.1613,-0.1617,-0.1661,-0.1665,-0.169,-0.1658,-0.1722,-0.1724,-0.1725,-0.1766,-0.1771,-0.1775,0,0,0,0,0,-0.1415,-0.1429,-0.1443,-0.1451,-0.149,-0.1515,-0.1521,-0.1551,-0.1567,-0.1586,-0.1612,-0.1614,-0.1672,-0.1663,-0.1668,-0.1694,-0.1722,-0.1723,-0.1725,-0.1764,-0.177,-0.1775,0,0,0,0,0,0,-0.1406,-0.1436,-0.1452,-0.1476,-0.1503,-0.1524,-0.1547,-0.1565,-0.1601,-0.1614,-0.1627,-0.1634,-0.1676,-0.1678,-0.1667,-0.1717,-0.1696,-0.1698,-0.1724,-0.1729,-0.1734,-0.1723,-0.166,0,0,0,0,0,-0.1412,-0.1433,-0.1461,-0.1483,-0.1499,-0.1528,-0.1548,-0.1569,-0.1596,-0.1614,-0.1639,-0.1663,-0.1681,-0.1701,-0.1716,-0.1748,-0.1729,-0.1766,-0.177,-0.1774,-0.1769,-0.1764,-0.1767,-0.1731,-0.1731,-0.1731,0,0,-0.1415,-0.1435,-0.1448,-0.1484,-0.1508,-0.1537,-0.1543,-0.1579,-0.1609,-0.1614,-0.1669,-0.1682,-0.1693,-0.1727,-0.1746,-0.1737,-0.1774,-0.1776,-0.1779,-0.1772,-0.1766,-0.1769,-0.1772,-0.1732,-0.1732,-0.1732,0,0,-0.1424,-0.1451,-0.1472,-0.1498,-0.154,-0.1558,-0.1575,-0.1613,-0.164,-0.1685,-0.1693,-0.172,-0.1761,-0.1767,-0.1775,-0.1811,-0.1795,-0.1823,-0.1844,-0.184,-0.1842,-0.1845,-0.1822,-0.1822,-0.1828,-0.1828,-0.1828,0,-0.143,-0.1459,-0.1483,-0.1511,-0.1538,-0.1571,-0.1602,-0.163,-0.1679,-0.17,-0.1712,-0.1761,-0.1775,-0.1801,-0.1816,-0.1822,-0.1811,-0.1825,-0.1845,-0.1847,-0.1848,-0.1825,-0.1824,-0.1831,-0.183,-0.183,-0.183,0,-0.1448,-0.1484,-0.1499,-0.1547,-0.1578,-0.161,-0.165,-0.1688,-0.1725,-0.1748,-0.1793,-0.1808,-0.1833,-0.1845,-0.1846,-0.1866,-0.1851,-0.1849,-0.1831,-0.1855,-0.1828,-0.1827,-0.1834,-0.1833,-0.1832,-0.1832,0,0,-0.1424,-0.1498,-0.1507,-0.1539,-0.1602,-0.1625,-0.1679,-0.1726,-0.176,-0.1804,-0.184,-0.1871,-0.1877,-0.1884,-0.1888,-0.1888,-0.1891,-0.1879,-0.1878,-0.1855,-0.1872,-0.1749,-0.1735,-0.1899,-0.1899,-0.1899,-0.1849,0,-0.1435,-0.1491,-0.1527,-0.1587,-0.1619,-0.1669,-0.1713,-0.1762,-0.1803,-0.1845,-0.1863,-0.1896,-0.1893,-0.1909,-0.191,-0.1899,-0.189,-0.1904,-0.1854,-0.1852,-0.1738,-0.173,-0.1899,-0.1847,-0.1847,-0.1846,-0.1846,0,-0.1432,-0.1476,-0.1535,-0.1611,-0.163,-0.1672,-0.1744,-0.1786,-0.1845,-0.1877,-0.1909,-0.1924,-0.1939,-0.1931,-0.1913,-0.1926,-0.19,-0.1883,-0.1881,-0.1747,-0.1725,-0.1819,-0.1843,-0.1843,-0.1843,-0.1843,-0.1844,0,-0.1392,-0.1475,-0.1525,-0.1553,-0.1643,-0.1683,-0.1731,-0.1798,-0.183,-0.1894,-0.1916,-0.1942,-0.195,-0.1935,-0.1903,-0.1915,-0.1867,-0.1877,-0.1736,-0.1727,-0.1837,-0.1835,-0.1851,-0.1851,-0.1851,-0.1851,-0.1851,0,-0.1372,-0.1414,-0.1516,-0.1543,-0.1599,-0.1671,-0.1727,-0.1777,-0.1842,-0.1863,-0.1924,-0.1923,-0.1952,-0.1931,-0.1904,-0.18,-0.1864,-0.1723,-0.1701,-0.1856,-0.1857,-0.1835,-0.1834,-0.1849,-0.185,-0.185,-0.185,0,-0.1312,-0.1384,-0.1442,-0.1547,-0.1581,-0.1619,-0.1715,-0.1744,-0.1819,-0.1846,-0.1865,-0.1909,-0.1871,-0.1872,-0.1836,-0.1775,-0.1709,-0.1656,-0.1805,-0.1796,-0.1574,-0.1576,-0.1492,-0.1487,-0.1483,-0.1479,-0.1476,0,-0.1282,-0.131,-0.1425,-0.1459,-0.1511,-0.1583,-0.1622,-0.1716,-0.1738,-0.1808,-0.1799,-0.1804,-0.1812,-0.1652,-0.1678,-0.1603,-0.1584,-0.1546,-0.1569,-0.1547,-0.1535,-0.1544,-0.1551,-0.147,-0.1469,-0.1467,-0.1466,0,-0.1216,-0.1269,-0.1317,-0.1386,-0.144,-0.1486,-0.155,-0.1556,-0.1643,-0.1729,-0.1674,-0.164,-0.1591,-0.1552,-0.15,-0.1454,-0.1574,-0.1503,-0.1512,-0.1533,-0.1519,-0.1514,-0.1526,-0.1452,-0.1454,-0.1455,-0.1456,0,-0.1159,-0.1174,-0.1241,-0.1282,-0.1347,-0.1356,-0.1413,-0.1427,-0.1455,-0.1544,-0.1515,-0.1521,-0.1565,-0.1471,-0.1424,-0.1366,-0.135,-0.1314,-0.1333,-0.1349,-0.1325,-0.1288,-0.1113,0,0,0,0,0,-0.1094,-0.1093,-0.113,-0.1162,-0.122,-0.1245,-0.1342,-0.1401,-0.1491,-0.1409,-0.1458,-0.1403,-0.1329,-0.1336,-0.1242,-0.136,-0.136,-0.1247,-0.1331,-0.1373,-0.1389,-0.1374,0,0,0,0,0,0,-0.1049,-0.1081,-0.1085,-0.1039,-0.1033,-0.1071,-0.1123,-0.1196,-0.1165,-0.1266,-0.1227,-0.13,-0.1244,-0.1334,-0.1197,-0.12,-0.1223,-0.1263,-0.1259,-0.1363,-0.1378,-0.1392,-0.1382,0,0,0,0,0]},{"header":{"parameterUnit":"m.s-1","parameterCategory":2,"la1":30.2991,"la2":30.254,"lo1":-89.0895,"lo2":-89.0444,"dy":0.0017,"dx":0.0017,"nx":28,"ny":28,"refTime":"2024-02-21T03:00:00:Z","depth":"4","parameterNumber":3,"parameterNumberName":"V-component_of_CURRENTS"},"data":[0,0,0,0,0,0,0,0,0,0,0,0,0,0,0,0,0,0,0,0,0,0,0,0,0,0,0,0,0,0,0,0,0,0,0,0,0,0,0,0,0,0,0,0,0,0,0,0,0,0,0,0,0,0,0,0,0,0,-0.0242,-0.0242,0,-0.0208,-0.0208,-0.0207,-0.0184,-0.0184,-0.0183,-0.0183,-0.0123,-0.0122,-0.0121,0,0,0,0,0,0,0,0,0,0,0,0,0,-0.026,-0.026,-0.0242,-0.0242,-0.0241,-0.0208,-0.0208,-0.0207,-0.0184,-0.0184,-0.0183,-0.0183,-0.0124,-0.0122,-0.012,0,0,0,0,0,0,0,0,0,0,0,0,0,-0.0242,-0.026,-0.0242,-0.0226,-0.0224,-0.0208,-0.0208,-0.0207,-0.0184,-0.0184,-0.0183,-0.0183,-0.0124,-0.0122,-0.012,-0.0111,0,0,-0.0113,-0.0113,0,0,0,0,0,0,0,0,-0.0243,-0.0241,-0.0228,-0.0227,-0.0225,-0.02,-0.0192,-0.0174,-0.0184,-0.0199,-0.0183,-0.0183,-0.0147,-0.0143,-0.0137,-0.0108,-0.0106,-0.0113,-0.0112,-0.0111,-0.011,0,0,0,0,0,0,0,-0.0244,-0.0242,-0.0228,-0.0228,-0.0226,-0.0211,-0.0209,-0.0189,-0.0174,-0.0197,-0.0196,-0.0193,-0.0146,-0.0139,-0.0135,-0.0105,-0.0113,-0.0111,-0.011,-0.0109,-0.0055,-0.0055,0,0,0,0,0,0,-0.0251,-0.0244,-0.0229,-0.0227,-0.0234,-0.0211,-0.0208,-0.0208,-0.0175,-0.017,-0.0193,-0.0192,-0.0143,-0.0138,-0.0133,-0.0116,-0.0111,-0.0109,-0.0108,-0.0055,-0.0055,-0.0055,0,0,0,0,0,0,-0.0251,-0.025,-0.0231,-0.0235,-0.0231,-0.0211,-0.0211,-0.0208,-0.0202,-0.0171,-0.0166,-0.0192,-0.0143,-0.0136,-0.0118,-0.0114,-0.0108,-0.0106,-0.0056,-0.0055,-0.0055,-0.0085,0,0,0,0,0,0,-0.0252,-0.025,-0.0255,-0.0235,-0.0231,-0.0226,-0.0211,-0.0207,-0.0201,-0.0199,-0.0169,-0.0163,-0.0142,-0.0122,-0.0116,-0.0111,-0.0104,-0.0056,-0.0055,-0.0055,-0.0084,-0.0086,-0.0087,0,0,0,0,0,-0.0253,-0.0261,-0.0256,-0.0254,-0.0238,-0.0227,-0.0224,-0.0208,-0.0201,-0.0202,-0.0181,-0.0164,-0.0116,-0.012,-0.0113,-0.0107,-0.0056,-0.0056,-0.0055,-0.0083,-0.0085,-0.0087,0,0,0,0,0,0,-0.0272,-0.0259,-0.0253,-0.0257,-0.0245,-0.0223,-0.0224,-0.0212,-0.0196,-0.0195,-0.0165,-0.0157,-0.0141,-0.012,-0.0126,-0.0091,-0.0082,-0.008,-0.0105,-0.0107,-0.0109,-0.0114,-0.0103,0,0,0,0,0,-0.0279,-0.0282,-0.0265,-0.0269,-0.0265,-0.0246,-0.024,-0.0229,-0.0211,-0.0204,-0.0183,-0.0157,-0.0134,-0.0119,-0.01,-0.0081,-0.0052,-0.0071,-0.0073,-0.0074,-0.0074,-0.0023,-0.002,-0.0054,-0.0054,-0.0054,0,0,-0.0289,-0.0282,-0.0284,-0.0274,-0.0264,-0.0261,-0.0242,-0.0237,-0.0231,-0.02,-0.0189,-0.0166,-0.0132,-0.0113,-0.0102,-0.0094,-0.0051,-0.0074,-0.0075,-0.0074,-0.0022,-0.0019,-0.0016,-0.0054,-0.0054,-0.0054,0,0,-0.0308,-0.0303,-0.0311,-0.0303,-0.0292,-0.0278,-0.0278,-0.0259,-0.0247,-0.0234,-0.0208,-0.018,-0.0153,-0.012,-0.01,-0.0097,-0.0065,-0.0094,-0.01,-0.0051,-0.0048,-0.0044,-0.0011,-0.0005,-0.0089,-0.0089,-0.0089,0,-0.032,-0.0326,-0.0311,-0.0315,-0.0311,-0.0287,-0.0292,-0.0276,-0.0252,-0.024,-0.0236,-0.018,-0.0152,-0.0112,-0.0112,-0.0099,-0.0075,-0.0097,-0.0053,-0.0049,-0.0045,-0.0012,-0.0004,-0.0091,-0.009,-0.009,-0.009,0,-0.034,-0.0346,-0.0351,-0.0347,-0.034,-0.0342,-0.0317,-0.0308,-0.0293,-0.027,-0.0237,-0.0197,-0.016,-0.0146,-0.0128,-0.0086,-0.008,-0.0066,-0.0049,-0.0043,-0.0009,-0.0,-0.0093,-0.0092,-0.0092,-0.0091,0,0,-0.0365,-0.0366,-0.0369,-0.0375,-0.0358,-0.0357,-0.0344,-0.0323,-0.0314,-0.0281,-0.0261,-0.0211,-0.0185,-0.0162,-0.0128,-0.0084,-0.0036,-0.0068,-0.0065,-0.0038,0.0059,0.0039,0.0046,-0.0017,-0.0015,-0.0014,0.0069,0,-0.0386,-0.0408,-0.0395,-0.0411,-0.0419,-0.0393,-0.0385,-0.036,-0.0333,-0.0308,-0.0249,-0.0222,-0.0191,-0.0177,-0.0124,-0.0062,-0.0015,-0.0061,0.0052,0.0055,0.0035,0.0056,-0.001,0.0076,0.0078,0.0079,0.008,0,-0.0409,-0.0421,-0.0445,-0.0448,-0.0448,-0.0452,-0.0435,-0.0424,-0.0373,-0.035,-0.0301,-0.0259,-0.0189,-0.0169,-0.0043,-0.0078,-0.0013,0.0038,0.0043,0.0041,0.0051,0.0072,0.0096,0.0095,0.0094,0.0092,0.0091,0,-0.0439,-0.0453,-0.0477,-0.0479,-0.0476,-0.0481,-0.0478,-0.0441,-0.0431,-0.0378,-0.0363,-0.0273,-0.0233,-0.0135,-0.0029,-0.0035,0.0103,0.0114,0.016,0.0159,0.0165,0.016,0.0206,0.0206,0.0206,0.0206,0.0205,0,-0.0464,-0.0484,-0.05,-0.0513,-0.0541,-0.0522,-0.0535,-0.0515,-0.0481,-0.0465,-0.0391,-0.0354,-0.0223,-0.0131,-0.0033,0.0086,0.0107,0.0163,0.0184,0.0148,0.0141,0.017,0.0165,0.0209,0.0208,0.0208,0.0207,0,-0.049,-0.0501,-0.0533,-0.0549,-0.0559,-0.0581,-0.0588,-0.0589,-0.0552,-0.0529,-0.0515,-0.0408,-0.0288,-0.0158,0.0003,0.0074,0.0193,0.023,0.0172,0.0188,0.0217,0.0209,0.0293,0.0293,0.0293,0.0293,0.0293,0,-0.0503,-0.0524,-0.0569,-0.06,-0.0613,-0.0641,-0.0658,-0.0633,-0.0625,-0.0556,-0.0542,-0.0431,-0.0348,-0.013,0.0,0.0183,0.0207,0.0261,0.025,0.0216,0.0229,0.022,0.0213,0.0293,0.0293,0.0293,0.0293,0,-0.0527,-0.0549,-0.0578,-0.0645,-0.0682,-0.0712,-0.0728,-0.0724,-0.0681,-0.0651,-0.0549,-0.0431,-0.0297,-0.013,0.0005,0.0138,0.0223,0.0263,0.0264,0.0254,0.0218,0.0228,0.022,0.0294,0.0294,0.0293,0.0293,0,-0.0546,-0.058,-0.0628,-0.0682,-0.0738,-0.0767,-0.0767,-0.0738,-0.0717,-0.0626,-0.0593,-0.0437,-0.0341,-0.0154,-0.0024,0.0097,0.0129,0.0165,0.0171,0.0173,0.0107,0.0042,0.0088,0,0,0,0,0,-0.0559,-0.0603,-0.0661,-0.0726,-0.0782,-0.0809,-0.0807,-0.079,-0.0745,-0.0677,-0.0628,-0.0496,-0.0289,-0.0194,-0.0074,-0.0039,0.0131,0.0102,0.0171,0.0295,0.0295,0.0236,0,0,0,0,0,0,-0.0571,-0.0631,-0.0664,-0.075,-0.0802,-0.0854,-0.0852,-0.0818,-0.0759,-0.0694,-0.0576,-0.0494,-0.029,-0.037,-0.0086,-0.0048,0.0009,0.0206,0.0208,0.0295,0.0295,0.0295,0.0235,0,0,0,0,0]}]]